Regional Weather Roundup
Issued by NWS

Home | Current Version | Previous Version | Text Only | Print | Product List | Glossary On
Versions: 1 2 3 4 5 6 7 8 9 10 11 12 13 14 15 16 17 18 19 20 21 22 23 24 25 26 27 28 29 30 31 32 33 34 35 36 37 38 39 40 41 42 43
000
ASUS45 KPSR 260410
RWRAZ

ARIZONA REGIONAL HOURLY WEATHER ROUNDUP
NATIONAL WEATHER SERVICE TUCSON AZ
900 PM MST THU MAY 25 2017

NOTE: FAIR INDICATES FEW OR NO CLOUDS BELOW 12,000 FEET WITH NO
SIGNIFICANT WEATHER AND/OR OBSTRUCTIONS TO VISIBILITY.

AZZ001>003-036-260500-
NORTHWEST ARIZONA

CITY           SKY/WX    TMP DP  RH WIND       PRES   REMARKS
BULLHEAD CITY  CLEAR     93  21   7 S17G23    29.53R
KINGMAN        CLEAR     77  19  11 S16       29.73R
$$

AZZ004>008-015-016-018-260500-
NORTH CENTRAL ARIZONA

CITY           SKY/WX    TMP DP  RH WIND       PRES   REMARKS
GRAND CANYON   CLEAR     59  14  17 SW9       29.95R
WILLIAMS       CLEAR     61   5  11 S9G15     29.98R
PRESCOTT       CLEAR     68  11  11 S7        29.89R
FLAGSTAFF      CLEAR     60   7  12 SW13      29.99R
PAYSON         CLEAR     70  14  11 SW8       29.96R
PAGE           MOCLDY    81  17   9 SW14G23   29.69R
$$

AZZ009>014-017-260500-
NORTHEAST ARIZONA

CITY           SKY/WX    TMP DP  RH WIND       PRES   REMARKS
WINSLOW        CLEAR     70  13  11 SW12      29.88R
SAINT JOHNS    PTCLDY    64  11  12 SW8       29.93R
WINDOW ROCK    CLEAR     65  12  12 SW17      29.96R
$$

AZZ023-260500-
GREATER PHOENIX AREA

CITY           SKY/WX    TMP DP  RH WIND       PRES   REMARKS
PHOENIX        MOCLDY    89  22   8 SW14      29.65R
BUCKEYE        CLEAR     81  27  13 S12       29.68R
LUKE AFB       CLEAR     87  22   9 SW16      29.66R
DEER VALLEY    CLEAR     87  23   9 SW10      29.68R
SCOTTSDALE     CLEAR     89  21   8 SW8       29.70R
MESA-GATEWAY   PTCLDY    88  18   7 SW13G18   29.71R
CHANDLER       CLEAR     88  21   8 S16       29.69R
$$

AZZ027-028-260500-
SOUTHWEST MARICOPA COUNTY AND PINAL COUNTY

CITY           SKY/WX    TMP DP  RH WIND       PRES   REMARKS
CASA GRANDE    MOCLDY    85  21   9 S13       29.73R
$$

AZZ503-504-507>509-260500-
SOUTHEAST ARIZONA

CITY           SKY/WX    TMP DP  RH WIND       PRES   REMARKS
TUCSON         PTCLDY    83  15   8 SW7       29.85R
DAVIS-MONTHAN  PTCLDY    79  16   9 S6        29.84R
NOGALES        MOCLDY    74  15  10 S6        29.95R
SIERRA VISTA   MOCLDY    75  19  12 S9        29.99R
DOUGLAS        MOCLDY    78  27  15 SW15      29.95R
SAFFORD        MOCLDY    75  14  10 NW6       29.81R
$$

AZZ020-021-025-026-031-260500-
SOUTHWEST ARIZONA

CITY           SKY/WX    TMP DP  RH WIND       PRES   REMARKS
YUMA           CLEAR     81  35  19 W5        29.64R
$$

CAZ031-033-041-043-047-048-061-260500-
SOUTHERN CALIFORNIA

CITY           SKY/WX    TMP DP  RH WIND       PRES   REMARKS
DOWNTOWN L.A.  CLOUDY    62  52  69 VRB5      29.87R
L.A. AIRPORT   MOCLDY    61  52  72 W10       29.88R
SAN DIEGO      MOCLDY    64  52  64 SW7       29.91R
BURBANK        CLOUDY    59  49  69 S7        29.87R
ONTARIO        PTCLDY    60  48  64 SW17      29.86R
RIVERSIDE      CLEAR     59  50  72 W5        29.86R
PALM SPRINGS   CLEAR     78  42  27 NW21      29.62R
EL CENTRO NAS  PTCLDY    73  42  32 W26       29.65R
IMPERIAL       LGT RAIN  73  45  36 W18       29.62R
BLYTHE         CLEAR     85  37  18 SW16      29.60R
NEEDLES        CLEAR     93  17   6 SW20G26   29.55R
$$

NVZ020-UTZ003-260500-
SOUTHERN NEVADA-UTAH

CITY           SKY/WX    TMP DP  RH WIND       PRES   REMARKS
LAS VEGAS      PTCLDY    87  13   6 SW14G22   29.55R
SALT LAKE CITY PTCLDY    61  34  36 SW3       29.72R
$$

NMZ009-TXZ055-260500-
NEW MEXICO-WEST TEXAS

CITY           SKY/WX    TMP DP  RH WIND       PRES   REMARKS
ALBUQUERQUE    CLOUDY    74   1   6 W12       29.89R
EL PASO        CLOUDY    85  21   9 W21       29.86R
$$


........................KEY........................
SKY/WX - SKY CONDITION/WEATHER
TMP    - TEMPERATURE IN FAHRENHEIT
DP     - DEWPOINT IN FAHRENHEIT
RH     - RELATIVE HUMIDITY IN PERCENT
WIND   - DIRECTION AND SPEED IN MILES PER HOUR (MPH)
VRB    - VARIABLE WIND DIRECTION
PRES   - MEAN SEA LEVEL PRESSURE IN INCHES OF MERCURY
         F - FALLING PRESSURE   R - RISING PRESSURE
         S - STEADY PRESSURE
VSB    - VISIBILITY IN MILES
HX     - HEAT INDEX IN FAHRENHEIT
WCI    - WIND CHILL INDEX IN FAHRENHEIT
TC     - TEMPERATURE IN CELSIUS WHICH IS ALSO KNOWN AS
         TEMPERATURE IN CENTIGRADE
AFB    - AIR FORCE BASE
         LUKE AFB IS LUKE AIR FORCE BASE
         DAVIS-MONTHAN IS DAVIS-MONTHAN AIR FORCE BASE
NAS    - NAVAL AIR STATION
         EL CENTRO NAS IS EL CENTRO NAVAL AIR STATION
N/A    - NOT AVAILABLE





USA.gov is the U.S. government's official web portal to all federal, state and local government web resources and services.